Location: Rimouski
(48.4330°N, 68.5170°W)
Time: 10:02:39
(UTC-05:00)

OTV 5 (USA 277) - Visible Passes

Search period start: 18 February 2019 00:00
Search period end: 28 February 2019 00:00
Orbit: 342 x 346 km, 54.5° (Epoch: 17 February)

Date Brightness Start Highest point End Pass type
(mag) Time Alt. Az. Time Alt. Az. Time Alt. Az.
23 Feb ? 18:12:29 10° SE 18:12:50 10° SE 18:12:50 10° SE visible
24 Feb ? 18:33:59 10° SSW 18:36:21 27° SE 18:36:21 27° SE visible
25 Feb ? 18:57:09 10° SW 18:59:43 64° SSW 18:59:43 64° SSW visible
26 Feb ? 17:46:27 10° SSW 17:48:57 26° SE 17:51:27 10° ENE visible
26 Feb ? 19:20:55 10° W 19:22:57 35° WNW 19:22:57 35° WNW visible
27 Feb ? 18:09:35 10° SW 18:12:28 73° SSE 18:14:39 16° ENE visible
27 Feb ? 19:45:00 10° WNW 19:46:06 18° WNW 19:46:06 18° WNW visible
